Location: Krakow
(50.0830°N, 19.9170°E)
Time: 02:24:18
(UTC+02:00)

A-11 Canister half - All Passes

Search period start: 26 September 2023 00:00
Search period end: 06 October 2023 00:00
Orbit: 1524 x 1684 km, 47.3° (Epoch: 25 September)

Date Brightness Start Highest point End Pass type
(mag) Time Alt. Az. Time Alt. Az. Time Alt. Az.
26 Sep - 13:36:15 10° S 13:43:49 29° SE 13:51:30 10° E daylight
26 Sep - 15:38:20 10° SW 15:47:29 62° SSE 15:56:55 10° E daylight
26 Sep - 17:42:41 10° W 17:52:08 77° S 18:01:55 10° E daylight
26 Sep - 19:47:28 10° W 19:56:44 56° SSW 20:06:19 10° SE visible
26 Sep - 21:53:02 10° W 22:00:19 25° SW 22:07:46 10° S visible
27 Sep - 13:14:47 10° S 13:22:11 28° SE 13:29:41 10° E daylight
27 Sep - 15:16:40 10° SW 15:25:47 60° SSE 15:35:10 10° E daylight
27 Sep - 17:20:59 10° W 17:30:25 77° S 17:40:10 10° E daylight
27 Sep - 19:25:45 10° W 19:35:01 57° SSW 19:44:36 10° SE visible
27 Sep - 21:31:13 10° W 21:38:39 26° SW 21:46:17 10° S visible
28 Sep - 12:53:19 10° S 13:00:33 26° SE 13:07:52 10° E daylight
28 Sep - 14:55:01 10° SW 15:04:05 59° SSE 15:13:25 10° E daylight
28 Sep - 16:59:16 10° W 17:08:41 77° S 17:18:25 10° E daylight
28 Sep - 19:04:02 10° W 19:13:19 59° SSW 19:22:55 10° SE visible
28 Sep - 21:09:25 10° W 21:17:00 27° SW 21:24:46 10° S visible
29 Sep - 12:31:52 10° S 12:38:55 25° SE 12:46:02 10° E daylight
29 Sep - 14:33:23 10° SW 14:42:24 57° SSE 14:51:40 10° E daylight
29 Sep - 16:37:34 10° W 16:46:57 77° S 16:56:39 10° E daylight
29 Sep - 18:42:19 10° W 18:51:36 60° SSW 19:01:12 10° SE visible
29 Sep - 20:47:38 10° W 20:55:21 28° SW 21:03:16 10° S visible
30 Sep - 12:10:26 10° S 12:17:17 24° SE 12:24:12 10° E daylight
30 Sep - 14:11:44 10° SW 14:20:43 56° SSE 14:29:55 10° E daylight
30 Sep - 16:15:53 10° W 16:25:14 77° S 16:34:54 10° E daylight
30 Sep - 18:20:37 10° W 18:29:54 61° SSW 18:39:29 10° SE daylight
30 Sep - 20:25:51 10° W 20:33:41 29° SW 20:41:44 10° SSE visible
01 Oct - 11:49:02 10° S 11:55:40 23° SE 12:02:21 10° E daylight
01 Oct - 13:50:06 10° SW 13:59:02 54° SSE 14:08:10 10° E daylight
01 Oct - 15:54:10 10° W 16:03:31 76° S 16:13:09 10° E daylight
01 Oct - 17:58:54 10° W 18:08:11 63° SSW 18:17:47 10° ESE daylight
01 Oct - 20:04:04 10° W 20:12:02 31° SW 20:20:11 10° SSE visible
02 Oct - 11:27:38 10° S 11:34:03 21° SE 11:40:30 10° E daylight
02 Oct - 13:28:28 10° SW 13:37:21 53° SSE 13:46:25 10° E daylight
02 Oct - 15:32:28 10° W 15:41:47 76° S 15:51:23 10° E daylight
02 Oct - 17:37:12 10° W 17:46:29 64° SSW 17:56:04 10° ESE daylight
02 Oct - 19:42:19 10° W 19:50:21 32° SW 19:58:38 10° SSE visible
03 Oct - 11:06:16 10° S 11:12:26 20° SE 11:18:37 10° E daylight
03 Oct - 13:06:50 10° SW 13:15:40 51° SSE 13:24:40 10° E daylight
03 Oct - 15:10:46 10° WSW 15:20:05 76° S 15:29:39 10° E daylight
03 Oct - 17:15:29 10° W 17:24:46 65° SSW 17:34:21 10° ESE daylight
03 Oct - 19:20:33 10° W 19:28:42 33° SW 19:37:04 10° SSE visible
04 Oct - 10:44:55 10° S 10:50:49 19° SE 10:56:44 10° E daylight
04 Oct - 12:45:13 10° SW 12:54:00 50° SSE 13:02:56 10° E daylight
04 Oct - 14:49:04 10° WSW 14:58:21 75° S 15:07:54 10° E daylight
04 Oct - 16:53:47 10° W 17:03:04 66° SSW 17:12:38 10° ESE daylight
04 Oct - 18:58:48 10° W 19:07:02 35° SW 19:15:29 10° SSE visible
05 Oct - 10:23:36 10° SSE 10:29:12 18° SE 10:34:49 10° E daylight
05 Oct - 12:23:36 10° SW 12:32:20 48° SSE 12:41:11 10° E daylight
05 Oct - 14:27:22 10° WSW 14:36:39 75° S 14:46:09 10° E daylight
05 Oct - 16:32:05 10° W 16:41:21 67° SSW 16:50:55 10° ESE daylight
05 Oct - 18:37:03 10° W 18:45:22 36° SW 18:53:54 10° SSE visible
